Location: Auttagershofen
(48.1940°N, 10.0237°E)
Time: 07:04:05
(UTC+00:00)

Cosmos 1140 Rocket - Pass Details

Date: 18 January 2026
Orbit: 739 x 763 km, 74.1° (Epoch: 17 February)

Event Time Altitude Azimuth Distance (km) Brightness Sun altitude
Rises 04:28:22 0° 188° (S) 3,160 6.6 -25.3°
Reaches altitude 10° 04:30:44 10° 184° (S) 2,243 5.9 -25.0°
Maximum altitude 04:35:41 56° 107° (ESE) 885 4.1 -24.1°
Drops below altitude 10° 04:40:42 10° 30° (NNE) 2,270 6.2 -23.3°
Sets 04:43:06 0° 26° (NNE) 3,202 7.0 -22.9°
